• In Hungary
  • List of Countries
  • For 7 days
  • Water Temperature
  • Satellite Maps
  • Weather Map
  • News
  • Weather Widgets
  • user-avatar
    Login

    Hourly Weather Pervokrasnoe

    Today, 25 September, Tuesday

    Time Temperature Precipitation Wind Pressure Humidity
    00:00 +15°C° 0 mm 2 mps 747 mmHg 56%
    01:00 +14°C° 0 mm 3 mps 747 mmHg 57%
    02:00 +14°C° 0 mm 3 mps 747 mmHg 59%
    03:00 +13°C° 0 mm 3 mps 747 mmHg 61%
    04:00 +13°C° 0 mm 2 mps 747 mmHg 82%
    05:00 +12°C° 0 mm 3 mps 747 mmHg 83%
    06:00 +12°C° 0 mm 3 mps 748 mmHg 84%
    07:00 +12°C° 0 mm 3 mps 748 mmHg 86%
    08:00 +13°C° 0 mm 4 mps 748 mmHg 78%
    09:00 +15°C° 0 mm 5 mps 748 mmHg 70%
    10:00 +16°C° 0 mm 6 mps 748 mmHg 62%
    11:00 +17°C° 0 mm 6 mps 748 mmHg 56%
    12:00 +18°C° 0 mm 7 mps 748 mmHg 49%
    13:00 +20°C° 0 mm 7 mps 748 mmHg 42%
    14:00 +20°C° 0 mm 7 mps 747 mmHg 41%
    15:00 +21°C° 0 mm 7 mps 747 mmHg 40%
    16:00 +21°C° 0 mm 7 mps 747 mmHg 38%
    17:00 +19°C° 0 mm 6 mps 747 mmHg 41%
    18:00 +18°C° 0 mm 4 mps 747 mmHg 44%
    19:00 +16°C° 0 mm 3 mps 748 mmHg 47%
    20:00 +16°C° 0 mm 3 mps 748 mmHg 46%
    21:00 +16°C° 0 mm 3 mps 748 mmHg 45%
    22:00 +16°C° 0 mm 3 mps 748 mmHg 45%
    23:00 +16°C° 0 mm 3 mps 748 mmHg 45%

    Tomorrow, 26 September, Wednesday

    Time Temperature Precipitation Wind Pressure Humidity
    00:00 +15°C° 0 mm 4 mps 748 mmHg 46%
    01:00 +14°C° 0 mm 4 mps 748 mmHg 46%
    02:00 +14°C° 0 mm 4 mps 748 mmHg 46%
    03:00 +15°C° 0 mm 4 mps 748 mmHg 45%
    04:00 +15°C° 0 mm 4 mps 748 mmHg 44%
    05:00 +14°C° 0 mm 4 mps 748 mmHg 45%
    06:00 +14°C° 0 mm 4 mps 748 mmHg 46%
    07:00 +14°C° 0 mm 5 mps 748 mmHg 47%
    08:00 +15°C° 0 mm 5 mps 749 mmHg 44%
    09:00 +17°C° 0 mm 5 mps 749 mmHg 40%
    10:00 +19°C° 0 mm 6 mps 749 mmHg 37%
    11:00 +20°C° 0 mm 5 mps 750 mmHg 38%
    12:00 +20°C° 0 mm 4 mps 750 mmHg 39%
    13:00 +21°C° 0 mm 3 mps 750 mmHg 40%
    14:00 +19°C° 0 mm 4 mps 750 mmHg 48%
    15:00 +18°C° 0 mm 4 mps 750 mmHg 56%
    16:00 +17°C° 0 mm 4 mps 750 mmHg 64%
    17:00 +14°C° 0.1 mm 4 mps 750 mmHg 70%
    18:00 +13°C° 0.1 mm 5 mps 750 mmHg 75%
    19:00 +12°C° 0.1 mm 5 mps 751 mmHg 80%
    20:00 +11°C° 0.1 mm 4 mps 751 mmHg 81%
    21:00 +11°C° 0.1 mm 4 mps 751 mmHg 81%
    22:00 +10°C° 0.1 mm 3 mps 751 mmHg 81%
    23:00 +10°C° 0.2 mm 3 mps 751 mmHg 82%

    Day after tomorrow, 27 September, Thursday

    Time Temperature Precipitation Wind Pressure Humidity
    00:00 +10°C° 0.2 mm 3 mps 751 mmHg 83%
    01:00 +9°C° 0.2 mm 3 mps 751 mmHg 84%
    02:00 +9°C° 0.3 mm 3 mps 751 mmHg 85%
    03:00 +9°C° 0.3 mm 2 mps 751 mmHg 86%
    04:00 +9°C° 0.3 mm 2 mps 751 mmHg 86%
    05:00 +9°C° 0.3 mm 2 mps 751 mmHg 87%
    06:00 +9°C° 0.3 mm 2 mps 751 mmHg 88%
    07:00 +8°C° 0.3 mm 2 mps 751 mmHg 89%
    08:00 +9°C° 0 mm 3 mps 751 mmHg 84%
    09:00 +9°C° 0 mm 3 mps 751 mmHg 79%
    10:00 +10°C° 0 mm 3 mps 751 mmHg 73%
    11:00 +10°C° 0 mm 4 mps 751 mmHg 67%
    12:00 +11°C° 0 mm 4 mps 750 mmHg 61%
    13:00 +12°C° 0 mm 4 mps 750 mmHg 55%
    14:00 +12°C° 0 mm 4 mps 750 mmHg 52%
    15:00 +12°C° 0 mm 5 mps 749 mmHg 49%
    16:00 +13°C° 0 mm 5 mps 749 mmHg 46%
    17:00 +12°C° 0 mm 5 mps 749 mmHg 49%
    18:00 +11°C° 0 mm 4 mps 748 mmHg 53%
    19:00 +8°C° 0 mm 4 mps 748 mmHg 57%
    20:00 +8°C° 0 mm 4 mps 748 mmHg 55%
    21:00 +9°C° 0 mm 5 mps 747 mmHg 54%
    22:00 +9°C° 0 mm 5 mps 747 mmHg 53%
    23:00 +8°C° 0.1 mm 6 mps 746 mmHg 55%

    28 September, Friday

    Time Temperature Precipitation Wind Pressure Humidity
    00:00 +8°C° 0.1 mm 6 mps 745 mmHg 58%
    01:00 +8°C° 0.1 mm 7 mps 745 mmHg 60%
    02:00 +8°C° 0.4 mm 7 mps 744 mmHg 63%
    03:00 +7°C° 0.4 mm 8 mps 744 mmHg 66%
    04:00 +6°C° 0.4 mm 8 mps 743 mmHg 69%
    05:00 +6°C° 0.2 mm 8 mps 743 mmHg 71%
    06:00 +6°C° 0.2 mm 8 mps 744 mmHg 74%
    07:00 +6°C° 0.2 mm 7 mps 744 mmHg 76%
    08:00 +8°C° 0 mm 7 mps 744 mmHg 73%
    09:00 +8°C° 0 mm 7 mps 745 mmHg 70%
    10:00 +9°C° 0 mm 7 mps 745 mmHg 66%
    11:00 +10°C° 0 mm 7 mps 745 mmHg 60%
    12:00 +11°C° 0 mm 7 mps 746 mmHg 54%
    13:00 +12°C° 0 mm 7 mps 746 mmHg 48%
    14:00 +12°C° 0 mm 7 mps 746 mmHg 46%
    15:00 +12°C° 0 mm 7 mps 746 mmHg 44%
    16:00 +12°C° 0 mm 7 mps 747 mmHg 42%
    17:00 +11°C° 0 mm 6 mps 747 mmHg 47%
    18:00 +11°C° 0 mm 4 mps 747 mmHg 51%
    19:00 +10°C° 0 mm 3 mps 748 mmHg 56%
    20:00 +8°C° 0 mm 4 mps 748 mmHg 56%
    21:00 +8°C° 0 mm 4 mps 748 mmHg 57%
    22:00 +8°C° 0 mm 4 mps 748 mmHg 58%
    23:00 +8°C° 0 mm 5 mps 747 mmHg 58%

    29 September, Saturday

    Time Temperature Precipitation Wind Pressure Humidity
    00:00 +8°C° 0 mm 5 mps 747 mmHg 58%
    01:00 +8°C° 0 mm 6 mps 747 mmHg 58%
    02:00 +8°C° 0 mm 6 mps 747 mmHg 60%
    03:00 +8°C° 0 mm 6 mps 746 mmHg 61%
    04:00 +8°C° 0 mm 7 mps 746 mmHg 63%
    05:00 +9°C° 0 mm 7 mps 746 mmHg 66%
    06:00 +9°C° 0 mm 8 mps 746 mmHg 69%
    07:00 +9°C° 0 mm 8 mps 746 mmHg 72%
    08:00 +11°C° 0.1 mm 9 mps 746 mmHg 70%
    09:00 +12°C° 0.1 mm 9 mps 746 mmHg 67%
    10:00 +14°C° 0.1 mm 10 mps 746 mmHg 65%
    11:00 +15°C° 0.1 mm 9 mps 746 mmHg 68%
    12:00 +15°C° 0.1 mm 8 mps 747 mmHg 70%
    13:00 +15°C° 0.1 mm 7 mps 747 mmHg 73%
    14:00 +14°C° 0.1 mm 6 mps 747 mmHg 74%
    15:00 +14°C° 0.1 mm 5 mps 748 mmHg 74%
    16:00 +14°C° 0.1 mm 4 mps 748 mmHg 75%
    17:00 +13°C° 0 mm 4 mps 749 mmHg 76%
    18:00 +12°C° 0 mm 3 mps 749 mmHg 77%
    19:00 +12°C° 0 mm 2 mps 750 mmHg 78%
    20:00 +10°C° 0 mm 2 mps 750 mmHg 75%
    21:00 +10°C° 0 mm 2 mps 750 mmHg 73%
    22:00 +9°C° 0 mm 2 mps 751 mmHg 71%
    23:00 +9°C° 0.1 mm 2 mps 751 mmHg 71%

    30 September, Sunday

    Time Temperature Precipitation Wind Pressure Humidity
    00:00 +9°C° 0.1 mm 2 mps 751 mmHg 70%
    01:00 +8°C° 0.1 mm 2 mps 751 mmHg 70%
    02:00 +8°C° 0.2 mm 2 mps 751 mmHg 71%
    03:00 +8°C° 0.2 mm 2 mps 752 mmHg 72%
    04:00 +8°C° 0.2 mm 2 mps 752 mmHg 72%
    05:00 +8°C° 0.3 mm 2 mps 752 mmHg 74%
    06:00 +7°C° 0.3 mm 3 mps 752 mmHg 76%
    07:00 +7°C° 0.3 mm 3 mps 752 mmHg 78%
    08:00 +7°C° 0.4 mm 3 mps 753 mmHg 78%
    09:00 +7°C° 0.4 mm 3 mps 753 mmHg 78%
    10:00 +7°C° 0.4 mm 3 mps 753 mmHg 78%
    11:00 +7°C° 0.2 mm 3 mps 754 mmHg 72%
    12:00 +8°C° 0.2 mm 3 mps 754 mmHg 66%
    13:00 +9°C° 0.2 mm 3 mps 754 mmHg 59%
    14:00 +9°C° 0 mm 3 mps 754 mmHg 56%
    15:00 +9°C° 0 mm 3 mps 754 mmHg 53%
    16:00 +10°C° 0 mm 3 mps 754 mmHg 49%
    17:00 +9°C° 0 mm 3 mps 754 mmHg 53%
    18:00 +7°C° 0 mm 2 mps 754 mmHg 57%
    19:00 +6°C° 0 mm 2 mps 754 mmHg 60%
    20:00 +6°C° 0 mm 2 mps 755 mmHg 62%
    21:00 +5°C° 0 mm 2 mps 755 mmHg 64%
    22:00 +5°C° 0 mm 2 mps 755 mmHg 65%
    23:00 +4°C° 0 mm 2 mps 755 mmHg 67%
    Show more